GEFSSE_con_probscp_198.txt.gz
Probability
0 0 0 1 1 1 2 3 3 3 4 4 3 4 4 3 1 1 2 2 2 1 0 1 2 3 3 2 2 1 0 0 0 0 0 0 0 0 0 0 0 0 0
0 0 0 0 0 0 1 1 1 2 3 3 3 4 4 3 1 0 1 1 1 0 0 0 1 2 2 1 1 0 0 0 0 0 0 0 0 0 0 0 0 0 0
0 0 0 0 0 0 0 0 0 1 2 3 4 4 3 2 1 0 0 0 0 0 0 0 1 1 1 0 0 0 0 0 0 0 0 0 0 0 0 0 0 0 0
0 0 0 0 0 0 1 1 0 0 1 2 4 4 3 2 1 0 0 0 0 0 0 0 0 0 0 0 0 0 0 0 0 0 0 0 0 0 0 0 0 0 0
0 0 0 0 0 0 1 1 0 0 0 1 2 3 3 2 1 0 0 0 0 0 0 0 0 0 0 0 0 0 0 0 0 0 0 0 0 0 0 0 0 0 0
0 0 0 0 0 0 1 1 0 0 0 0 1 2 2 1 0 0 0 0 0 0 0 0 0 0 0 0 0 0 0 0 0 0 0 0 0 0 0 0 0 0 0
0 0 0 0 0 0 0 0 0 1 0 0 0 1 1 0 0 0 0 0 0 0 0 0 0 0 0 0 0 0 0 0 0 0 0 0 0 0 0 0 0 0 0
0 0 0 0 0 0 0 0 0 0 0 0 0 0 0 0 0 0 0 0 0 0 0 0 0 0 0 0 0 0 0 0 0 0 0 0 0 0 0 0 0 0 0
0 0 0 0 0 0 0 0 0 0 0 0 0 0 0 0 0 0 0 0 0 0 0 0 0 0 0 0 0 0 0 0 0 0 0 0 0 0 0 0 0 0 0
1 0 0 0 0 0 0 0 0 0 0 0 0 0 0 0 0 0 0 0 0 0 0 0 0 0 0 0 0 0 0 0 0 0 0 0 0 0 0 0 0 0 0
2 1 0 0 0 0 0 0 0 0 0 0 0 0 0 0 0 0 1 0 0 0 0 0 0 0 0 0 0 0 0 0 0 0 0 0 0 0 0 0 0 0 0
2 1 1 0 0 0 0 0 0 0 0 0 0 0 0 0 0 1 2 1 0 0 0 0 0 0 0 0 0 0 0 0 0 0 0 0 0 0 0 0 0 0 0
2 2 2 1 0 0 0 0 0 0 0 0 0 0 0 0 0 1 2 2 0 0 0 0 0 0 0 0 0 0 0 0 0 0 0 0 0 1 0 0 0 0 0
2 3 3 3 1 1 0 0 0 0 0 1 0 0 0 0 0 0 1 1 0 0 0 0 0 0 0 0 0 0 0 0 0 0 0 0 0 0 0 0 0 0 0
5 5 5 5 3 2 1 0 0 0 0 0 0 0 0 0 0 0 0 0 0 0 1 0 0 0 0 0 0 0 0 0 0 0 0 0 0 0 1 1 1 0 0
10 10 8 6 4 2 1 0 0 0 0 0 0 0 0 0 0 0 0 0 0 0 0 0 0 0 0 0 0 0 0 0 0 0 0 0 0 1 3 3 2 1 1
15 14 11 6 3 1 0 0 0 0 0 0 0 0 0 1 1 0 0 0 0 0 0 0 0 0 0 0 0 0 0 0 0 0 0 0 0 2 4 5 5 4 3
17 14 10 6 3 1 0 0 0 0 0 0 0 0 0 1 2 1 0 0 0 0 0 0 0 0 0 0 0 0 0 0 0 0 0 0 0 1 2 5 7 6 6
15 12 8 5 4 2 1 0 0 0 0 0 0 0 0 1 1 1 0 0 0 0 0 0 0 0 0 0 0 0 0 0 0 0 0 0 0 0 0 3 5 6 5
11 10 7 5 4 3 2 1 0 0 0 0 0 0 1 1 1 1 1 1 0 0 0 0 0 0 0 0 0 0 0 0 0 0 0 0 0 0 0 1 2 2 3
12 11 10 7 5 4 5 4 2 2 1 0 0 0 1 3 3 2 2 2 1 0 0 0 0 0 0 0 0 0 0 0 0 0 0 0 0 0 0 0 0 0 1
18 16 13 10 7 7 8 8 6 4 3 1 0 0 1 3 5 5 4 3 2 0 0 0 0 0 0 0 0 0 0 0 0 0 0 0 0 0 0 0 0 0 0
23 19 15 11 10 10 10 9 8 7 5 2 0 0 1 3 5 5 4 3 1 0 0 0 0 0 0 0 0 0 0 0 0 0 0 0 0 0 0 0 0 1 1
24 21 16 13 12 12 10 9 8 8 6 3 1 0 0 2 3 4 4 3 2 1 1 1 0 0 0 0 0 0 0 0 0 0 0 0 0 0 0 0 0 1 1
28 26 22 17 14 14 11 8 7 7 6 4 1 0 1 2 2 3 5 5 5 4 3 2 1 0 0 0 0 0 0 0 0 0 0 0 0 0 0 0 0 0 1
33 31 27 21 16 14 12 9 7 7 7 4 2 1 1 3 3 4 6 7 8 8 6 3 1 0 0 0 0 0 0 0 0 0 0 0 0 0 0 0 0 0 0

GEFSSE_con_probscp_204.txt.gz
Probability
0 0 0 0 0 0 0 1 1 1 0 0 0 0 0 0 0 0 0 0 0 0 0 0 0 0 0 0 0 0 0 0 0 0 0 0 0 0 0 0 0 0 0
0 0 0 0 0 0 1 2 3 1 0 0 0 0 0 0 0 0 0 0 0 0 0 0 0 0 0 0 0 0 0 0 0 0 0 0 0 0 0 0 0 0 0
0 0 0 0 0 0 1 2 2 1 0 0 0 0 0 0 0 0 0 0 0 0 0 0 0 0 0 0 0 0 0 0 0 0 0 0 0 0 0 0 0 0 0
0 0 0 0 0 0 0 1 1 0 0 0 0 0 0 0 0 0 0 0 0 0 0 0 0 0 0 0 0 0 0 0 0 0 0 0 0 0 0 0 0 0 0
0 0 0 0 0 0 0 0 1 0 0 0 0 0 0 0 0 0 0 0 0 0 0 0 0 0 0 0 0 0 0 0 0 0 0 0 0 0 0 0 0 0 0
0 0 0 0 0 0 0 0 0 0 0 0 0 0 0 0 0 0 0 0 0 0 0 0 0 0 0 0 0 0 0 0 0 0 0 0 0 0 0 0 0 0 0
0 0 0 0 0 0 0 0 0 0 0 0 0 0 0 0 0 0 0 0 0 0 0 0 0 0 0 0 0 0 0 0 0 0 0 0 0 0 0 0 0 0 0
0 0 0 0 0 0 0 0 0 0 0 0 0 0 0 0 0 0 0 0 0 0 0 0 0 0 0 0 0 0 0 0 0 0 0 0 0 0 0 0 0 0 0
0 0 0 0 0 0 0 0 0 0 0 0 0 0 0 0 0 0 0 0 0 0 0 0 0 0 0 0 0 0 0 0 0 0 0 0 0 0 0 0 0 0 0
0 0 0 0 0 0 0 0 0 0 0 0 0 0 0 0 0 0 0 0 0 0 0 0 0 0 0 0 0 0 0 0 0 0 0 0 0 0 0 0 0 0 0
0 0 0 0 0 0 0 0 0 0 0 0 0 0 0 0 0 0 0 0 0 0 0 0 0 0 0 0 0 0 0 0 0 0 0 0 0 0 0 0 0 0 0
0 0 0 0 0 0 0 0 0 0 0 0 0 0 0 0 0 0 0 0 0 0 0 0 0 0 0 0 0 0 0 0 0 0 0 0 0 0 0 0 0 0 0
0 0 0 1 1 0 0 0 0 0 0 0 0 0 0 0 0 0 0 0 0 0 0 0 0 0 0 0 0 0 0 0 0 0 0 0 0 0 0 0 0 0 0
1 0 1 2 2 1 0 0 0 0 0 0 0 0 0 0 0 0 0 0 0 0 0 0 0 0 0 0 0 0 0 0 0 0 0 0 0 0 0 0 0 0 0
2 1 1 3 3 2 0 0 0 0 0 0 0 0 0 0 0 0 0 0 0 0 0 0 0 0 0 0 0 0 0 0 0 0 0 0 0 0 0 0 1 1 0
2 2 2 3 2 1 0 0 0 0 0 0 0 0 0 0 0 0 0 0 0 0 0 0 0 0 0 0 0 0 0 0 0 0 0 0 0 0 0 1 2 2 1
1 1 1 2 1 0 0 0 0 0 0 0 0 0 0 0 0 0 0 0 0 0 0 0 0 0 0 0 0 0 0 0 0 0 0 0 0 0 0 1 2 3 3
0 0 0 0 0 0 0 0 0 0 0 0 0 0 0 0 0 0 0 0 0 0 0 0 0 0 0 0 0 0 0 0 0 0 0 0 0 0 0 0 2 3 3
0 0 0 0 0 0 0 0 0 0 0 0 0 0 0 0 0 0 0 0 0 0 0 0 0 0 0 0 0 0 0 0 0 0 0 0 0 0 0 0 1 2 2
0 0 0 0 0 0 0 0 0 0 0 0 0 0 0 0 0 0 0 0 0 0 0 0 0 0 0 0 0 0 0 0 0 0 0 0 0 0 0 0 1 1 1
0 0 0 0 0 0 0 0 0 0 0 0 0 0 0 0 0 0 0 0 0 0 0 0 0 0 0 0 0 0 0 0 0 0 0 0 0 0 0 0 0 0 0
0 0 0 0 0 0 0 0 0 0 0 0 0 0 0 0 0 0 0 0 0 0 0 1 1 0 1 1 1 0 0 0 0 0 0 0 0 0 0 0 0 0 0
1 0 0 0 0 0 0 0 0 0 0 0 0 0 0 0 0 0 0 0 0 1 1 2 2 2 2 2 2 1 1 1 1 0 0 0 0 0 0 0 0 0 0
3 2 1 1 1 0 0 0 1 1 1 1 0 0 0 0 0 1 1 0 1 2 2 3 3 3 3 3 3 3 2 2 1 0 0 0 0 0 0 0 0 0 0
8 6 4 3 2 1 0 1 2 3 3 2 1 1 0 0 0 2 2 1 1 3 3 3 3 3 3 3 3 3 3 2 1 0 0 0 0 0 0 0 0 0 0
12 10 7 5 3 2 1 1 3 4 4 3 2 2 1 0 0 1 1 1 1 4 4 3 3 3 3 3 3 3 3 2 1 0 0 0 0 0 0 0 0 0 0

GEFSSE_con_probscp_210.txt.gz
Probability
0 0 0 0 0 0 0 0 0 0 0 0 0 0 0 0 0 0 0 0 0 0 0 0 0 0 0 0 0 0 0 0 0 0 0 0 0 0 0 0 0 0 0
0 0 0 0 0 0 0 0 0 0 0 0 0 0 0 0 0 0 0 0 0 0 0 0 0 0 0 0 0 0 0 0 0 0 0 0 0 0 0 0 0 0 0
0 0 0 0 0 0 0 0 1 1 0 0 0 0 0 0 0 0 0 0 0 0 0 0 0 0 0 0 0 0 0 0 0 0 0 0 0 0 0 0 0 0 0
0 0 0 0 0 0 0 0 1 1 0 0 0 0 0 0 0 0 0 0 0 0 0 0 0 0 0 0 0 0 0 0 0 0 0 0 0 0 0 0 0 0 0
0 0 0 0 0 0 0 0 1 1 0 0 0 0 0 0 0 0 0 0 0 0 0 0 0 0 0 0 0 0 0 0 0 0 0 0 0 0 0 0 0 0 0
0 0 0 0 0 0 0 0 0 0 0 0 0 0 0 0 0 0 0 0 0 0 0 0 0 0 0 0 0 0 0 0 0 0 0 0 0 0 0 0 0 0 0
0 0 0 0 0 0 0 1 0 0 0 0 0 0 0 0 0 0 0 0 0 0 0 0 0 0 0 0 0 0 0 0 0 0 0 0 0 0 0 0 0 0 0
0 0 0 0 0 0 0 0 0 0 0 0 0 0 0 0 0 0 0 0 0 0 0 0 0 0 0 0 0 0 0 0 0 0 0 0 0 0 0 0 0 0 0
0 0 0 0 0 0 0 0 0 0 0 0 0 0 0 0 0 0 0 0 0 0 0 0 0 0 0 0 0 0 0 0 0 0 0 0 0 0 0 0 0 0 0
0 0 0 0 0 0 0 0 0 0 0 0 0 0 0 0 0 0 0 0 0 0 0 0 0 0 0 0 0 0 0 0 0 0 0 0 0 0 0 0 0 0 0
0 0 0 0 0 0 0 0 0 0 0 0 0 0 1 1 0 0 0 0 0 0 0 0 0 0 0 0 0 0 0 0 0 0 0 0 0 0 0 0 0 0 0
0 0 0 0 0 0 0 0 0 0 0 0 0 1 2 1 1 1 1 1 1 0 0 0 0 0 0 0 0 0 0 0 0 0 0 0 0 0 0 0 0 0 0
0 1 1 1 1 0 0 0 0 0 0 0 0 1 1 1 1 1 2 2 1 0 0 0 0 0 0 0 0 0 0 0 0 0 0 0 0 0 0 0 0 0 0
2 2 2 2 2 1 0 0 0 0 0 0 0 0 0 0 0 1 1 1 1 0 0 0 0 0 0 0 0 0 0 0 0 0 0 0 0 0 0 0 0 0 0
4 3 3 3 3 2 1 1 0 0 0 0 0 0 0 0 0 1 1 0 0 0 0 1 0 0 0 0 0 0 0 0 0 0 0 0 0 0 0 0 0 0 0
4 3 3 3 3 3 2 1 0 0 0 0 0 0 0 0 0 2 2 1 0 0 0 0 0 0 0 0 0 0 0 0 0 0 0 0 0 0 0 0 0 0 0
2 2 2 3 3 3 3 2 0 0 0 0 0 0 0 0 1 2 3 3 1 1 1 1 1 1 1 1 1 0 0 0 0 0 0 0 0 0 0 0 0 0 0
1 1 1 1 2 3 3 2 1 1 1 1 1 1 1 1 1 2 3 4 4 4 4 3 2 2 2 3 2 1 0 0 0 0 0 0 0 0 1 0 0 0 1
1 0 0 0 1 2 3 3 3 2 2 2 2 2 2 3 2 2 3 4 5 6 6 4 2 3 3 3 3 2 0 0 0 0 0 0 0 0 0 0 0 0 1
3 2 0 0 1 1 2 3 3 2 2 2 2 3 3 3 3 3 2 3 3 4 4 3 3 4 4 3 2 1 0 0 0 0 0 0 0 0 0 0 0 0 1
6 4 2 1 1 0 0 1 1 1 1 1 1 1 2 2 2 2 2 1 1 1 2 2 4 7 7 4 1 0 0 0 0 0 0 0 0 0 0 0 0 0 0
8 6 4 3 2 1 0 1 1 0 0 0 0 0 1 1 1 1 2 1 1 1 2 4 7 9 8 6 4 2 1 1 1 0 0 0 0 0 0 0 0 1 1
9 9 8 8 7 5 3 3 2 1 0 1 1 1 1 1 0 1 3 3 3 3 5 7 9 10 10 9 9 7 4 2 1 1 1 1 1 1 1 1 1 2 2
13 13 13 11 10 9 8 5 3 1 1 2 2 3 2 1 1 2 4 6 8 8 8 8 8 9 11 12 12 11 9 6 5 4 3 2 3 3 4 4 4 4 4
16 17 16 13 11 10 8 5 4 3 3 3 4 4 4 3 3 3 4 8 9 8 8 8 7 8 11 13 13 13 12 11 9 8 6 5 4 5 6 7 7 6 5
18 19 16 13 12 10 6 4 4 4 3 4 5 5 5 5 4 3 4 7 7 5 5 6 6 7 10 12 13 14 14 13 12 11 9 7 6 5 7 8 8 6 6

GEFSSE_con_probscp_216.txt.gz
Probability
0 0 1 0 0 0 0 1 1 1 0 0 1 1 1 0 0 0 0 0 0 0 0 0 0 0 0 0 0 0 0 0 0 0 0 0 0 0 0 0 0 0 0
0 0 1 0 0 0 0 0 1 1 0 0 0 0 0 0 0 0 0 0 0 0 0 0 0 0 0 0 0 0 0 0 0 0 0 0 0 0 0 0 0 0 0
0 0 1 0 0 0 0 0 1 1 1 0 0 0 0 0 0 0 0 0 0 0 0 0 0 0 0 0 0 0 0 0 0 0 0 0 0 0 0 0 0 0 0
0 1 1 1 0 0 0 0 1 1 1 0 0 0 0 0 0 0 0 0 0 0 0 0 0 0 0 0 0 0 0 0 0 0 0 0 0 0 0 0 0 0 0
0 1 2 2 1 1 0 0 0 0 0 0 0 0 0 0 0 0 0 0 0 0 0 0 0 0 0 0 0 0 0 0 0 0 0 0 0 0 0 0 0 0 0
0 0 1 1 1 1 0 0 0 0 0 0 0 0 0 0 0 0 0 0 0 0 0 0 0 0 0 0 0 0 0 0 0 0 0 0 0 0 0 0 0 0 0
0 0 0 1 1 1 0 0 0 0 0 0 0 0 0 0 0 0 0 0 0 0 0 0 0 0 0 0 0 0 0 0 0 0 0 0 0 0 0 0 0 0 0
0 0 0 1 0 0 0 0 0 0 0 0 0 0 0 0 0 0 0 0 0 0 0 0 0 0 0 0 0 0 0 0 0 0 0 0 0 0 0 0 0 0 0
0 0 0 0 0 0 0 0 0 0 0 0 0 0 0 0 0 0 0 0 0 0 0 0 0 0 0 0 0 0 0 0 0 0 0 0 1 1 1 0 0 0 0
0 0 0 0 0 0 0 0 0 0 0 0 0 0 0 0 0 0 0 1 1 0 0 0 0 0 1 1 1 0 0 0 0 0 0 0 1 2 1 1 1 0 0
0 0 0 0 0 0 0 0 0 0 0 0 0 0 0 0 0 1 1 2 2 1 1 1 1 2 3 3 3 1 0 0 0 0 0 1 3 3 3 2 2 1 1
0 0 0 0 0 0 0 0 0 0 0 0 0 0 0 0 0 1 2 3 3 3 2 3 3 4 3 3 3 2 0 0 0 0 1 3 5 4 3 3 3 3 2
0 0 1 1 0 0 0 0 0 0 1 1 0 0 1 1 0 0 1 3 4 3 2 3 3 2 1 1 1 1 0 0 0 0 1 5 6 5 4 3 4 3 3
2 2 2 3 2 0 0 0 0 0 0 1 1 1 1 1 0 0 1 3 3 2 2 2 2 1 0 0 0 0 0 0 0 0 2 5 7 6 4 4 5 4 4
8 5 4 5 4 2 1 0 0 0 0 0 1 1 1 1 0 0 2 3 2 2 2 2 2 1 0 0 0 0 0 0 0 0 1 5 7 6 5 5 6 6 6
17 12 8 7 5 4 2 2 2 1 0 1 2 3 2 1 1 2 3 5 4 3 4 5 4 3 1 0 0 0 0 0 0 0 1 2 5 6 6 6 6 6 6
22 19 13 8 7 6 4 3 3 2 1 2 4 6 5 4 4 5 6 6 5 5 6 8 7 6 4 2 1 1 1 1 1 1 1 1 3 4 5 6 6 5 5
26 23 16 10 10 9 6 4 3 3 3 3 5 7 7 7 8 9 7 5 5 5 6 8 9 8 7 5 3 3 4 3 2 1 2 3 3 3 3 4 5 6 6
30 26 19 13 12 11 7 5 4 4 4 4 5 7 8 8 9 9 7 6 6 5 6 7 8 10 9 8 5 3 5 5 3 3 3 5 6 5 3 2 4 6 7
33 29 23 18 15 12 8 6 5 5 4 3 4 6 7 6 8 9 9 9 9 7 7 8 9 10 12 11 8 4 4 5 6 7 6 6 8 8 6 5 6 6 6
35 33 29 24 20 16 11 7 6 4 3 2 3 5 7 6 7 9 11 13 13 12 11 10 10 11 13 14 12 8 5 6 8 10 10 9 9 9 9 10 12 11 10
40 39 36 31 27 20 14 9 6 4 4 3 5 8 10 9 7 8 11 13 14 14 14 14 13 13 13 14 14 11 8 6 7 8 10 12 12 11 10 12 15 16 16
44 43 41 40 36 28 20 12 7 7 7 7 7 11 14 12 9 9 11 12 12 13 16 18 16 14 13 13 13 14 12 9 6 6 8 11 13 13 11 10 12 16 19
42 42 45 49 46 39 29 19 13 11 10 9 8 11 16 16 13 12 14 14 13 12 14 16 17 14 12 11 14 16 16 14 11 8 7 8 10 12 11 10 11 15 18
40 41 48 55 54 47 38 29 22 15 12 12 11 13 18 20 17 14 16 19 17 13 12 13 14 13 10 9 12 15 17 17 15 12 9 7 8 10 12 14 15 16 17
40 43 51 58 56 50 41 35 28 18 14 14 15 17 20 23 21 15 16 21 20 15 12 12 12 12 9 7 9 13 16 17 16 14 10 6 7 10 14 17 18 18 17

GEFSSE_con_probscp_222.txt.gz
Probability
0 0 0 0 1 3 6 6 4 3 3 4 5 4 4 5 6 6 4 3 1 0 0 0 0 0 0 0 0 0 0 0 0 0 0 0 0 0 0 0 0 0 0
0 0 0 0 1 3 5 5 4 3 4 4 4 4 4 4 4 4 4 2 1 0 0 0 0 0 0 0 0 0 0 0 0 0 0 0 0 0 0 0 0 0 0
0 0 0 0 1 3 4 3 3 4 5 6 5 5 5 4 3 3 3 1 0 0 0 0 0 0 0 0 0 0 0 0 0 0 0 0 0 0 0 0 0 0 0
0 0 0 0 1 3 4 3 3 3 5 6 6 6 5 5 3 2 1 0 0 0 0 0 0 0 0 0 0 0 0 0 0 0 0 0 0 0 0 0 0 0 0
0 0 0 1 3 5 5 4 4 4 3 4 4 4 4 4 3 1 0 0 0 0 0 0 0 0 0 0 0 0 0 0 0 0 0 0 0 0 0 0 0 0 0
0 0 0 2 3 4 4 3 4 3 2 1 3 3 3 3 2 1 0 0 0 0 0 0 0 0 0 0 0 0 0 0 0 0 0 0 0 0 0 0 0 0 0
0 0 0 1 3 3 2 1 1 1 0 1 2 3 3 3 2 1 0 0 0 0 0 0 0 0 0 0 0 0 0 0 0 0 0 0 0 0 0 0 0 0 0
0 0 0 1 1 1 1 1 1 1 0 1 2 3 3 3 2 1 0 0 0 0 0 0 0 0 0 0 0 0 0 0 0 0 0 0 0 0 0 0 0 0 0
0 0 0 0 0 0 1 2 2 1 0 1 2 3 3 3 1 0 0 0 0 0 0 0 0 0 0 0 0 0 0 0 0 0 0 0 0 0 0 0 0 0 0
0 0 0 0 0 0 1 3 2 1 0 0 1 2 3 2 1 0 0 0 0 0 0 0 0 0 0 0 0 0 0 0 0 0 0 0 0 0 0 0 0 0 0
0 0 0 0 0 0 0 1 1 0 0 0 0 1 2 2 1 0 0 0 0 1 1 1 1 1 0 0 0 0 0 0 0 0 0 0 0 0 0 0 1 1 0
0 0 0 0 0 0 0 0 0 0 0 1 0 0 1 1 0 0 0 0 0 2 2 2 2 2 0 0 0 0 0 0 0 0 0 0 0 0 0 1 2 2 1
1 0 0 0 0 0 0 0 0 0 0 0 0 0 0 0 0 0 0 0 0 1 1 1 1 1 0 0 0 0 0 0 0 0 0 0 0 1 1 2 3 3 3
2 1 1 0 0 0 0 0 0 0 0 0 0 0 0 0 0 0 0 0 0 0 0 0 0 0 0 0 0 0 0 0 0 0 0 0 1 2 3 4 4 4 3
5 4 2 1 1 0 0 0 0 0 0 0 0 0 1 1 0 0 0 0 0 0 0 0 0 0 0 0 0 0 0 0 0 0 0 0 1 3 5 6 6 5 4
8 7 5 3 2 1 1 0 0 0 0 0 0 1 2 1 0 0 0 0 0 0 0 0 0 0 0 0 0 0 0 0 0 0 0 0 0 2 5 6 6 5 5
12 11 9 6 4 3 3 1 0 0 0 0 0 1 1 1 0 0 0 0 0 0 0 0 0 0 0 0 0 0 0 0 0 0 0 0 0 1 4 6 6 5 5
13 12 10 7 5 4 3 1 1 0 0 0 0 0 1 0 0 0 0 0 0 0 0 1 1 1 1 1 1 1 1 1 1 0 0 0 0 1 3 5 6 6 6
9 8 7 6 5 3 2 2 1 1 0 0 0 0 1 0 0 0 0 0 0 0 0 1 2 2 2 2 2 2 2 2 2 1 1 1 1 1 2 3 4 6 6
8 7 6 5 4 2 2 2 1 1 1 0 0 0 0 0 0 0 0 0 0 0 0 1 1 2 2 2 2 1 1 1 2 2 2 2 2 2 3 3 3 5 6
13 11 8 5 3 2 2 1 0 0 0 0 0 0 0 0 0 0 0 0 0 0 0 0 0 1 1 1 1 0 0 0 1 1 2 2 3 3 4 5 5 4 5
20 15 10 6 3 1 1 0 0 0 0 0 0 0 0 0 0 0 0 0 0 0 0 0 0 0 0 0 0 0 0 0 0 0 1 1 1 2 4 5 5 4 4
25 21 15 10 7 3 1 0 0 0 0 0 0 0 0 0 0 0 0 0 0 0 0 0 0 0 0 0 0 0 0 0 0 0 0 0 0 1 2 2 2 2 2
28 26 21 18 15 10 5 2 0 0 0 0 0 0 0 0 0 0 0 0 1 2 1 1 0 0 0 0 0 0 1 0 0 0 0 0 0 0 0 1 1 1 2
28 28 27 25 22 17 12 8 4 1 0 0 0 0 0 0 0 0 1 2 3 4 3 2 1 1 1 1 0 1 1 1 0 0 0 0 0 0 0 0 1 1 2
27 29 30 29 26 21 17 14 8 2 0 0 0 0 0 0 0 1 2 3 6 7 5 3 2 2 2 2 1 2 2 1 1 1 0 0 0 0 0 0 0 1 1

GEFSSE_con_probscp_228.txt.gz
Probability
3 3 3 4 6 7 7 7 7 6 5 4 4 4 3 3 4 5 5 4 3 3 3 3 3 3 3 3 3 3 3 3 3 2 1 0 0 0 0 0 0 0 0
3 3 3 3 4 6 6 6 5 4 4 4 4 3 3 3 3 4 5 4 3 3 3 3 3 3 3 3 3 3 3 3 3 1 0 0 0 0 0 0 0 0 0
3 3 3 3 3 4 5 5 4 3 3 3 3 3 3 3 3 4 4 3 3 3 3 2 2 2 3 3 3 3 3 3 2 1 0 0 0 0 0 0 0 0 0
3 3 3 3 3 3 4 5 4 3 3 3 3 3 3 3 3 2 2 2 2 2 1 1 1 1 1 2 2 2 1 1 1 1 0 0 0 0 0 0 0 0 0
3 3 3 4 3 3 4 6 5 4 3 3 3 3 3 3 1 1 1 1 1 1 0 0 0 0 0 1 1 1 0 0 0 0 0 0 0 0 0 0 0 0 0
3 3 4 5 4 4 5 6 6 4 3 3 3 3 3 2 1 0 0 0 0 0 0 0 0 0 0 0 0 0 0 0 0 0 0 0 0 0 0 0 0 0 0
3 3 4 5 6 6 6 7 6 4 3 3 3 2 2 1 0 0 0 0 0 0 0 1 1 1 0 0 0 0 0 0 0 0 0 0 0 0 0 0 0 0 0
3 3 4 5 6 6 6 6 5 4 3 3 3 2 1 0 0 0 0 0 0 0 0 1 2 1 0 0 0 0 0 0 0 0 0 0 0 0 0 0 0 0 0
3 3 3 4 4 4 4 4 4 3 3 3 3 3 2 1 0 0 0 0 0 0 0 1 1 1 0 0 0 0 0 0 0 0 0 0 0 0 0 0 0 0 0
3 3 3 3 3 3 3 3 3 3 3 3 3 3 3 2 1 1 0 0 0 0 0 0 0 0 0 0 0 0 0 0 0 0 0 0 1 1 0 0 0 0 0
2 2 2 2 2 3 3 3 3 3 3 3 3 3 3 2 2 1 0 0 0 0 0 0 0 0 0 0 0 0 0 0 0 0 0 1 2 1 1 1 1 1 0
1 1 1 1 1 1 2 2 2 2 3 3 3 3 3 1 1 1 0 0 0 0 0 0 0 0 0 0 0 0 0 0 0 0 0 1 2 2 1 2 2 2 1
2 1 0 0 0 0 1 1 0 1 2 2 2 2 2 1 0 0 0 0 0 0 0 0 1 0 0 0 0 0 0 0 0 0 0 2 3 3 3 3 3 3 3
3 2 1 0 0 0 0 0 0 0 1 1 1 1 1 0 0 0 0 0 0 0 0 0 0 0 0 0 0 0 0 0 0 0 0 1 2 3 3 3 3 3 3
3 2 1 0 0 0 0 0 0 0 0 0 0 0 0 0 0 0 0 0 0 0 0 0 0 0 0 0 0 0 1 1 1 0 0 0 2 3 3 3 4 4 4
2 1 0 0 0 0 0 0 0 0 0 0 0 0 0 0 0 0 0 0 0 0 0 0 0 0 0 0 1 1 2 2 2 1 1 1 2 3 3 4 4 5 5
1 0 0 0 0 0 0 0 0 0 0 0 0 0 0 0 0 0 0 0 0 0 0 0 0 0 0 0 1 2 2 2 2 2 1 1 1 2 3 3 4 5 5
0 0 0 0 0 0 0 0 0 0 0 0 0 0 0 0 0 0 0 0 0 0 0 0 0 0 0 0 1 1 1 1 1 1 1 1 0 1 2 3 3 4 5
0 0 0 0 0 0 1 1 0 0 0 0 0 0 0 0 0 0 0 0 0 0 0 0 0 0 0 0 1 1 1 1 1 1 3 3 2 2 3 4 4 4 5
1 0 0 0 0 1 1 0 0 0 0 0 0 0 0 0 0 0 0 0 0 0 0 0 0 1 1 1 2 2 2 2 2 3 4 5 5 4 4 5 4 4 5
3 2 2 1 1 1 0 0 0 0 0 0 0 0 0 0 0 0 0 0 1 1 1 1 1 2 2 3 3 3 3 2 3 3 4 4 5 4 4 4 4 4 5
7 6 4 3 3 1 1 0 0 0 0 0 0 0 0 0 0 0 0 1 2 2 2 2 3 3 3 3 3 3 3 3 3 3 3 3 4 3 3 3 3 3 4
10 8 6 5 5 3 2 1 0 0 0 0 0 0 0 0 0 0 1 2 3 3 3 3 3 3 3 3 3 3 3 3 3 3 3 3 3 3 3 3 3 3 3
9 8 6 5 5 4 4 3 1 1 1 1 1 1 1 1 1 1 2 3 4 4 4 4 4 3 3 3 3 3 3 3 3 3 3 3 3 3 3 3 3 3 3
9 7 6 5 5 5 5 5 4 3 3 3 3 3 2 2 2 3 3 4 5 6 6 6 5 4 3 3 3 3 3 3 3 3 3 3 3 3 3 3 3 3 3
9 8 7 6 6 6 6 6 6 5 5 5 5 4 3 3 3 3 4 5 6 6 6 6 6 4 3 3 3 3 3 3 3 3 3 3 3 3 3 3 3 3 3

GEFSSE_con_probscp_234.txt.gz
Probability
0 0 1 2 2 1 0 1 1 0 1 2 4 6 7 6 4 3 2 1 0 0 0 0 0 0 0 0 0 0 0 0 0 0 0 0 0 0 0 0 0 0 0
0 0 1 2 3 1 1 2 2 1 1 2 3 4 5 6 5 3 1 0 0 0 0 0 0 0 0 0 0 0 0 0 0 0 0 0 0 0 0 0 0 0 0
0 0 1 2 3 3 3 3 3 1 0 1 1 2 3 4 4 2 0 0 0 0 0 0 0 0 0 0 0 0 0 0 0 0 0 0 0 0 0 0 0 0 0
0 0 1 2 3 3 4 4 4 3 1 0 0 1 1 1 1 0 0 0 0 0 0 0 0 0 0 0 0 0 0 0 0 0 0 0 0 0 0 0 0 0 0
0 0 1 2 3 3 3 4 5 4 2 0 0 0 0 0 0 0 0 0 0 0 0 0 0 0 0 0 0 0 0 0 0 0 0 0 0 0 0 0 0 0 0
0 0 1 2 3 2 2 3 4 3 2 0 0 0 0 0 0 0 0 0 0 0 0 0 0 0 0 0 0 0 0 0 0 0 0 0 0 0 0 0 0 0 0
0 0 1 2 1 1 1 2 3 3 1 0 0 0 0 0 0 0 0 0 0 0 0 0 0 0 0 0 0 0 0 0 0 0 0 0 0 0 0 0 0 0 0
0 0 1 1 1 1 2 3 3 3 1 0 0 0 0 0 0 0 0 0 0 0 0 0 0 0 0 0 0 0 0 0 0 0 0 0 0 0 0 0 0 0 0
0 0 1 1 1 1 2 3 3 2 1 0 0 0 0 0 0 0 0 0 0 0 0 0 0 0 0 0 0 0 0 0 0 0 0 0 0 0 0 0 0 0 0
0 0 1 2 2 2 2 2 2 1 1 0 0 0 0 0 0 0 0 0 0 0 0 0 0 0 0 0 0 0 0 0 0 0 0 0 0 0 0 0 0 0 0
0 0 1 2 2 2 1 0 0 0 0 0 0 0 0 0 0 0 0 0 0 0 0 0 0 0 0 0 0 0 0 0 0 0 0 0 0 0 0 0 0 0 0
0 0 0 1 1 1 0 0 0 0 0 0 0 0 0 0 0 0 0 0 0 0 0 0 0 0 0 0 0 0 0 0 0 0 0 1 1 1 0 0 0 0 0
0 0 0 0 0 0 0 0 0 0 1 0 0 0 0 0 0 0 0 0 0 0 0 0 0 0 0 0 0 0 0 0 0 0 0 1 2 1 0 0 0 0 0
0 0 0 0 0 0 0 0 0 1 2 1 0 0 0 0 0 0 0 0 0 0 0 0 0 0 0 0 0 0 0 0 0 0 0 1 1 0 0 0 0 0 0
0 0 0 0 0 0 0 1 0 0 1 1 1 1 0 1 1 0 0 0 0 0 0 1 1 1 0 0 0 0 0 0 0 0 0 0 0 0 0 0 0 0 0
0 0 0 0 0 0 0 0 0 0 0 1 1 1 1 2 2 1 1 0 0 0 1 2 2 2 2 1 1 0 0 0 0 0 0 0 0 0 0 0 0 0 0
0 0 0 0 0 0 0 0 0 0 0 0 1 2 2 2 2 2 2 1 1 1 1 2 3 3 3 2 1 1 0 0 0 0 0 0 1 1 1 1 1 1 1
0 0 1 1 1 0 0 1 1 1 0 0 1 1 1 1 1 1 2 3 3 3 2 2 2 2 2 2 2 1 0 0 0 0 0 0 1 2 2 2 2 2 2
1 2 3 3 2 0 0 1 1 1 0 0 0 0 0 0 0 0 1 3 4 3 2 1 1 1 1 1 1 1 0 0 0 0 0 0 1 1 1 1 1 1 2
3 4 6 6 4 2 1 1 1 0 0 0 0 0 0 0 0 0 0 1 3 3 2 1 1 1 1 1 1 1 0 0 0 0 0 0 0 0 0 0 0 0 1
5 6 8 8 8 5 3 2 1 0 0 0 0 0 0 0 0 0 0 1 2 3 2 1 1 1 1 2 3 2 1 0 0 0 0 0 0 0 0 0 0 0 0
7 7 7 9 10 8 4 2 1 0 0 0 0 0 1 1 1 1 0 1 2 3 2 2 2 3 4 5 6 5 2 1 1 1 0 0 0 0 0 0 0 0 0
10 8 7 8 10 9 5 2 1 0 0 0 0 1 2 2 2 2 1 2 3 3 3 4 6 7 7 8 8 8 6 4 3 1 0 0 1 0 0 0 0 1 1
14 11 8 8 10 9 7 4 2 1 0 1 1 2 3 3 3 3 3 3 4 4 5 6 8 9 8 7 8 9 9 7 5 2 0 0 0 0 0 0 0 1 2
16 14 11 12 12 11 9 7 5 4 3 4 4 4 4 4 4 4 5 5 6 6 6 6 7 8 7 6 7 8 9 9 8 4 1 0 0 0 0 0 1 1 2
17 16 14 15 15 12 10 9 7 7 8 9 8 6 6 6 6 6 7 7 8 8 7 7 7 6 6 6 6 8 9 9 8 5 2 1 1 1 0 1 2 2 3

GEFSSE_con_probscp_240.txt.gz
Probability
0 0 0 0 0 0 0 0 0 2 4 7 9 10 9 8 6 3 1 0 0 0 0 0 0 0 0 0 0 0 0 0 0 0 0 0 0 0 0 0 0 0 0
0 0 0 0 0 0 0 0 1 2 5 7 9 10 9 7 5 2 0 0 0 0 0 0 0 0 0 0 0 0 0 0 0 0 0 0 0 0 0 0 0 0 0
0 1 1 0 0 0 0 0 1 2 4 7 9 10 9 6 3 1 0 0 0 0 0 0 0 0 0 0 0 0 0 0 0 0 0 0 0 0 0 0 0 0 0
1 2 3 2 1 0 0 0 0 1 3 6 8 9 7 4 2 0 0 0 0 0 0 0 0 0 0 0 0 0 0 0 0 0 0 0 0 0 0 0 0 0 0
3 4 5 5 3 1 0 0 0 1 2 3 5 6 4 3 1 0 0 0 0 0 0 0 0 0 0 0 0 0 0 0 0 0 0 0 0 0 0 0 0 0 0
3 4 6 7 5 2 0 0 0 0 1 1 1 2 1 1 1 0 0 0 0 0 0 0 0 0 0 0 0 0 0 0 0 0 0 0 0 0 0 0 0 0 0
3 3 5 6 4 1 0 0 0 0 0 0 0 0 0 0 0 1 1 0 0 0 0 0 0 0 0 0 0 0 0 0 0 0 0 0 0 0 0 0 0 0 0
3 3 4 4 3 1 0 0 0 0 0 0 0 0 0 0 1 2 1 0 0 0 0 0 0 0 0 0 0 0 0 0 0 0 0 0 1 2 1 1 0 0 0
2 3 3 3 3 2 0 0 0 0 0 0 0 0 0 0 1 2 1 0 0 0 0 0 0 0 0 0 0 0 0 0 1 0 0 1 2 3 3 2 1 0 0
1 2 3 3 4 2 1 0 0 0 0 0 0 0 0 0 1 1 0 0 1 1 0 0 0 0 0 0 0 0 0 0 0 0 0 1 4 4 3 3 2 1 1
0 1 1 2 4 3 1 0 0 0 0 0 0 0 0 0 0 1 1 1 2 3 2 1 1 0 0 0 0 0 0 0 0 0 0 2 5 4 3 3 3 3 2
0 0 0 1 2 3 3 3 2 1 1 1 1 1 1 0 0 0 1 1 3 4 4 4 3 2 1 0 0 0 0 0 0 0 1 4 6 5 4 3 3 3 2
1 0 0 0 1 3 5 6 5 3 2 2 2 2 1 1 0 0 0 1 2 3 5 6 5 2 1 0 0 0 0 0 0 0 1 4 6 6 5 4 3 1 1
2 1 0 0 1 4 5 5 4 2 1 2 2 2 1 1 0 0 0 1 1 3 4 4 2 1 0 0 0 0 1 1 0 0 2 5 7 7 6 5 3 1 0
3 1 0 1 3 4 4 2 1 1 1 2 3 2 1 1 1 1 1 1 1 2 2 2 1 1 0 0 0 1 3 2 1 1 3 8 10 9 7 6 3 1 0
7 4 1 1 3 5 3 1 0 1 2 3 4 3 1 0 1 3 2 1 1 1 1 2 3 2 2 1 0 1 3 4 3 2 4 7 11 11 10 9 7 5 3
15 11 6 2 3 5 4 1 1 2 3 4 4 3 2 2 2 3 3 2 1 1 2 3 4 3 2 1 1 1 2 4 4 4 4 6 9 12 13 13 12 11 9
24 21 13 6 6 7 4 3 3 3 3 3 4 4 3 3 3 2 2 1 1 1 2 3 3 2 1 1 1 0 1 2 4 5 4 5 7 10 13 16 17 17 15
31 28 20 13 11 9 5 3 3 3 3 3 3 4 4 3 3 3 3 3 3 2 1 1 1 1 1 1 1 0 0 1 2 4 4 3 5 10 15 18 21 20 17
33 32 27 20 15 11 6 4 3 3 2 2 3 5 6 4 3 4 5 6 6 4 2 1 1 2 2 3 2 2 1 2 3 4 3 1 3 9 14 18 21 19 17
37 37 34 26 19 13 9 6 5 4 3 2 3 6 9 8 6 6 7 9 8 7 5 4 3 4 4 5 5 5 5 4 5 5 5 3 4 7 11 16 19 18 17
42 43 41 35 27 19 13 10 7 6 6 4 5 9 13 13 11 10 11 11 10 10 8 7 6 5 5 6 7 8 7 5 4 5 7 7 6 7 7 10 17 20 21
43 43 43 43 36 26 18 13 10 9 8 7 9 13 16 17 15 14 15 15 13 12 10 9 8 6 5 6 7 7 7 6 4 5 7 8 9 8 5 5 11 19 23
41 40 41 43 39 30 22 17 14 12 9 10 12 15 17 18 17 16 17 18 18 15 13 11 9 7 7 6 7 7 7 6 6 6 6 7 8 8 6 3 5 12 18
39 38 37 39 39 34 26 22 19 16 13 13 15 17 18 19 20 20 21 23 23 20 17 13 10 9 8 7 7 7 7 7 6 6 6 7 7 8 6 4 4 7 10
38 37 36 38 40 37 30 24 21 18 16 17 19 20 19 20 22 24 25 27 26 24 21 16 12 10 9 8 7 7 6 6 6 6 6 7 8 9 8 6 5 6 6

GEFSSE_con_probscp_246.txt.gz
Probability
0 1 2 2 2 2 5 8 9 9 8 7 6 7 7 5 4 2 1 0 0 0 0 0 0 0 0 0 0 0 0 0 0 0 0 0 0 0 1 1 1 0 0
0 1 2 3 3 2 5 8 8 8 7 5 4 5 5 4 3 2 1 0 0 0 0 0 0 0 0 0 0 0 0 0 0 0 0 0 0 0 0 0 0 0 0
0 1 2 4 3 3 5 7 7 7 6 4 3 3 3 2 2 1 1 0 0 0 0 0 0 0 0 0 0 0 0 0 0 0 0 0 0 0 0 0 0 0 0
0 0 1 3 3 3 4 7 7 7 7 6 4 3 2 1 0 0 0 0 0 0 0 0 0 0 0 0 0 0 0 0 0 0 0 0 0 0 0 0 0 0 0
0 0 1 2 2 2 4 6 6 7 7 6 5 3 1 0 0 0 0 0 0 0 0 0 0 0 0 0 0 0 0 0 0 0 0 0 0 0 0 0 0 0 0
1 1 1 1 1 2 3 5 5 5 5 5 4 2 1 0 0 0 0 0 0 0 0 0 0 0 0 0 0 0 0 0 0 0 0 0 0 0 0 0 0 0 0
2 2 1 1 1 2 3 4 4 3 3 3 2 1 0 0 0 0 0 0 0 0 0 0 0 0 0 0 0 0 0 0 0 0 0 0 0 0 0 0 0 0 0
3 3 2 2 2 2 2 3 4 4 2 1 1 0 0 0 0 0 0 0 0 0 0 0 0 0 0 0 0 0 0 0 0 0 0 0 0 0 1 1 0 0 0
3 3 3 1 1 1 2 2 3 3 2 0 0 0 0 0 0 0 0 0 0 0 0 0 0 0 0 0 0 0 0 0 0 0 0 0 0 1 2 2 1 0 0
1 2 2 1 0 0 1 1 1 2 1 0 0 0 0 0 0 0 0 0 0 0 0 0 0 0 0 0 0 0 0 0 0 0 0 0 0 1 2 2 1 0 0
0 1 1 1 0 0 0 0 0 1 0 0 0 0 0 0 0 0 0 0 0 0 0 0 0 0 0 0 0 0 0 0 0 0 0 0 0 0 1 1 0 0 0
0 0 0 0 0 0 0 0 0 0 0 0 0 0 0 0 0 0 0 0 0 0 0 0 0 0 0 0 0 0 0 0 0 0 0 0 0 0 0 0 0 0 0
0 0 0 0 0 0 0 0 0 0 0 0 0 0 0 0 0 0 0 0 0 0 0 0 0 0 0 0 0 0 0 0 0 0 0 0 0 0 0 0 0 0 1
0 0 0 0 0 0 0 0 0 0 0 0 0 0 0 0 0 0 0 0 0 0 0 0 0 0 0 0 0 0 0 0 0 0 0 1 1 1 1 1 0 1 2
0 0 0 0 0 0 0 0 0 0 0 0 0 0 0 0 0 0 0 0 0 0 0 0 0 0 0 0 0 0 0 0 0 0 0 1 2 3 3 2 1 2 3
0 1 1 1 0 0 0 0 1 1 1 1 1 0 0 0 0 0 0 0 0 0 0 0 0 0 0 0 0 0 0 0 0 0 0 1 3 5 5 4 3 3 4
1 2 3 2 1 0 1 1 2 2 2 2 1 0 0 0 0 0 0 0 0 0 0 0 0 0 0 0 0 0 0 0 0 0 0 0 2 5 6 6 7 7 7
4 4 5 4 2 1 2 3 3 3 3 1 0 0 0 0 0 0 0 0 0 0 0 0 0 0 0 0 0 0 0 0 0 0 0 1 2 4 5 8 10 12 11
9 9 7 6 3 3 3 3 3 3 3 1 1 0 0 0 0 0 0 0 0 0 0 0 0 0 0 0 0 0 0 0 0 0 0 1 2 2 3 6 9 11 13
17 14 10 7 5 3 3 3 2 2 2 2 2 2 2 1 1 0 0 0 0 0 0 0 0 0 0 0 0 0 0 0 0 0 0 1 1 1 1 2 4 7 8
20 18 13 9 6 4 4 3 1 1 1 3 3 3 3 3 2 1 0 0 1 1 1 0 0 1 1 1 0 0 0 0 0 0 0 0 0 0 0 1 2 2 2
21 20 15 9 7 6 6 4 2 0 1 2 2 3 3 3 2 1 0 0 1 2 1 0 1 2 2 1 0 0 0 0 0 0 0 0 0 0 0 0 0 0 0
21 19 15 11 9 8 8 7 4 2 3 3 3 3 3 3 3 2 1 0 1 1 1 0 1 2 2 1 0 0 0 0 0 0 0 0 0 0 0 0 0 0 0
20 18 15 12 10 9 8 7 6 5 6 6 6 5 4 4 5 4 3 2 1 1 1 1 1 2 2 2 1 1 0 0 0 0 0 0 0 0 0 0 0 0 0
21 19 16 13 12 10 8 7 6 7 7 8 8 7 5 4 5 4 4 4 4 3 3 2 3 3 4 4 3 2 1 1 0 0 0 0 0 0 0 0 0 0 0
25 21 17 16 14 11 9 6 6 6 6 7 9 8 6 5 5 4 4 6 6 5 4 3 3 4 5 6 5 3 2 2 1 0 0 0 0 0 0 0 0 0 0